#timestamp,LO_Frequency,Hit,StdDev 
1683522015.3,286046998.9,N
1683522035.2,286046999.6,N
1683522055.0,286046999.5,N
1683522055.9,286046999.5,N
1683522075.8,286046998.9,N
1683522095.6,286046998.7,N
1683522145.5,286046997.2,E
1683522155.4,286046999.3,N
1683522175.2,286047001.2,P
1683522195.1,286046998.6,N
1683522196.0,286046998.6,N
1683522215.8,286047000.1,N
1683522235.6,286047002.8,N
1683522255.5,286046999.8,N
1683522275.3,286047000.6,N
1683522295.2,286047000.2,N
1683522315.9,286047000.1,N
1683522335.7,286047001.5,N
1683522355.6,286047004.4,Y
1683522375.4,286047001.8,P
1683522395.3,286047002.4,P
1683522415.1,286047002.0,N
1683522435.8,286047002.5,Y
1683522455.7,286046999.9,P
1683522475.5,286046999.9,N
1683522495.4,286047002.3,N
1683522515.2,286046999.7,N
1683522535.0,286046999.7,N
1683522535.9,286046999.7,N
1683522555.8,286046999.7,N
1683522575.6,286047002.3,N
1683522595.5,286047001.8,N
1683522615.3,286047002.0,N
1683522635.1,286047004.4,Y
1683522655.9,286047002.3,P
1683522675.7,286047000.1,N
1683522695.5,286047002.1,N
1683522715.4,286047003.9,Y
1683522735.2,286047002.6,P
1683522755.1,286046999.7,N
1683522756.0,286046999.7,N
1683522775.8,286047000.2,N
1683522795.6,286047001.0,N
1683522815.5,286047001.1,N
1683522835.3,286047000.0,N
1683522855.1,286046999.7,N
1683522875.9,286046999.9,N
1683522895.7,286046999.9,N
1683522915.6,286047000.5,N
1683522935.4,286047002.8,Y
1683522955.2,286047000.6,P
1683522975.1,286047001.4,P
1683522976.0,286047001.4,P
1683522995.8,286047003.6,Y
1683523015.7,286047002.4,P
1683523035.5,286047002.0,N
1683523055.3,286047001.3,N
1683523075.2,286047001.5,N
1683523095.9,286047001.5,N
1683523115.7,286047002.0,Y
1683523135.6,286047000.0,P
1683523155.4,286047000.2,N
1683523175.3,286046999.8,N
1683523195.1,286047000.3,N
1683523196.0,286047000.3,N
1683523215.8,286047000.2,N
1683523235.7,286046999.9,N
1683523255.5,286047000.3,N
1683523275.4,286047000.1,N
1683523295.2,286046999.7,N
1683523315.0,286046999.8,N
1683523315.9,286046999.8,N
1683523335.8,286047000.0,N
1683523355.6,286047000.7,N
1683523375.5,286047001.0,N
1683523395.3,286047000.0,N
1683523415.1,286047000.0,N
1683523435.9,286047002.2,Y
1683523455.7,286047000.0,P
1683523475.5,286046998.8,P
1683523495.4,286046998.6,N
1683523515.2,286047000.8,N
1683523535.1,286046999.8,N
1683523536.0,286046999.8,N
1683523555.8,286047000.6,N
1683523575.6,286046999.9,N
1683523595.5,286047000.0,N
1683523615.3,286046999.7,N
1683523635.1,286047002.4,Y
1683523655.9,286046999.9,P
1683523675.7,286047001.7,P
1683523695.6,286047001.7,N
1683523715.4,286047001.4,N
1683523735.2,286047004.4,Y
1683523755.1,286047002.0,P
1683523756.0,286047002.0,P
1683523775.8,286047001.6,P
1683523795.6,286047001.4,Y
1683523815.5,286047002.5,P
1683523835.3,286047001.7,P
1683523855.2,286047002.8,P
1683523875.9,286046999.7,N
1683523895.7,286046998.6,N
1683523915.6,286046998.7,N
1683523935.4,286047000.9,N
1683523955.3,286047000.6,N
1683523975.1,286047001.5,N
1683523976.0,286047001.5,N
1683523995.8,286047002.6,N
1683524015.7,286046998.7,N
1683524035.5,286046999.4,N
1683524055.4,286046998.7,N
1683524075.2,286046998.6,N
1683524095.0,286047000.4,N
1683524095.9,286047000.4,N
1683524115.8,286046999.7,N
1683524135.6,286047002.3,N
1683524155.5,286047002.4,N
1683524175.3,286047001.8,N
1683524195.1,286047001.4,N
1683524215.9,286047001.8,N
1683524235.7,286047002.2,N
1683524255.5,286046999.7,N
1683524275.4,286047002.7,N
1683524295.2,286047001.5,N
1683524315.1,286047001.3,N
1683524316.0,286047001.3,N
1683524335.8,286047002.6,N
1683524355.6,286047002.0,N
1683524375.5,286047003.7,N
1683524395.3,286047004.4,Y
1683524415.2,286047000.4,P
1683524435.9,286047000.0,N
1683524455.7,286047001.5,P
1683524475.6,286047001.7,N
1683524495.4,286047002.5,Y
1683524515.2,286046999.9,P
1683524535.1,286047002.5,P
1683524536.0,286047002.5,N
1683524555.8,286047002.8,N
1683524575.7,286047000.2,N
1683524595.5,286047000.4,N
1683524615.3,286046998.1,N
1683524635.2,286047001.2,N
1683524655.0,286047001.2,N
1683524655.9,286047001.2,N
1683524675.7,286046998.2,N
1683524695.6,286046996.5,N
1683524715.4,286046997.5,N
1683524735.3,286046995.7,N
1683524755.1,286046993.9,N
1683524756.0,286046993.9,N
1683524775.8,286046993.9,N
1683524795.7,286046993.4,N
1683524815.5,286046998.0,N
1683524835.4,286046996.8,N
1683524855.2,286046999.6,N
1683524875.0,286047000.7,N
1683524875.9,286047000.7,N
1683524895.8,286047000.9,N
1683524915.6,286046998.4,N
1683524935.5,286046998.4,N
1683524955.3,286046998.5,N
1683524975.1,286046998.1,N
1683524995.9,286046998.3,N
1683525015.7,286046999.0,N
1683525035.5,286047000.7,N
1683525055.4,286047000.8,N
1683525075.2,286046998.2,N
1683525095.0,286047000.9,N
1683525096.0,286047000.9,N
1683525115.8,286047000.1,N
1683525135.6,286046999.9,N
1683525155.5,286046999.9,N
1683525175.3,286047000.5,N
1683525195.1,286047000.8,N
1683525215.9,286047001.0,N
1683525235.7,286047000.5,N
1683525255.6,286047000.4,N
1683525275.4,286047001.1,N
1683525295.2,286047001.0,N
1683525315.1,286047000.9,N
1683525316.0,286047000.9,N
1683525335.8,286047000.0,N
1683525355.6,286047002.6,N
1683525375.5,286047001.3,N
1683525395.3,286047004.0,Y
1683525415.2,286047002.3,P
1683525435.9,286047003.9,P
1683525455.7,286047002.7,N
1683525475.6,286047002.4,N
1683525495.4,286047000.1,N
1683525515.3,286046999.7,N
1683525535.1,286047000.2,N
1683525536.0,286047000.2,N
1683525555.8,286046999.8,N
1683525575.7,286047001.9,N
1683525595.5,286047001.9,N
